DW3835 Weather Reports


Display with metric or nautical units.
time (UTC)temp
F
wind
direction
speed
MPH
gust
MPH
rain 1hr
in
rain 24hr
in
rain mn
in
humidity
%
barometer
mb
20260510062947 55 145 0.0 4.0 0.00 0.00 0.00 87 1012.9
20260510061922 55 163 0.0 4.0 0.00 0.00 0.00 88 1013.0
20260510060933 55 180 0.0 3.0 0.00 0.00 0.00 88 1012.8
20260510055943 55 152 1.0 6.0 0.00 0.00 0.00 88 1013.0
20260510054912 55 97 1.0 6.0 0.00 0.00 0.00 87 1012.8
20260510053906 55 150 1.0 4.0 0.00 0.00 0.00 88 1012.9
20260510052924 55 170 1.0 5.0 0.00 0.00 0.00 87 1012.9
20260510051943 55 119 1.0 8.0 0.00 0.00 0.00 87 1013.0
20260510045754 56 170 0.0 0.0 0.00 0.00 0.00 86 1013.0
20260510044722 56 167 0.0 3.0 0.00 0.00 0.00 86 1013.0
20260510042622 56 182 0.0 3.0 0.00 0.00 0.00 85 1012.8
20260510041624 56 144 0.0 3.0 0.00 0.00 0.00 85 1012.6
20260510040643 56 218 0.0 3.0 0.00 0.00 0.00 85 1012.6
20260510035650 56 124 0.0 3.0 0.00 0.00 0.00 85 1012.6
20260510034616 57 191 0.0 3.0 0.00 0.00 0.00 84 1012.5
20260510033602 57 79 0.0 3.0 0.00 0.00 0.00 83 1012.3
20260510031508 58 165 0.0 3.0 0.00 0.00 0.00 81 1012.2
20260510025321 60 111 0.0 4.0 0.00 0.00 0.00 80 1012.1
20260510024339 60 119 0.0 4.0 0.00 0.00 0.00 80 1011.9
20260510023326 61 147 0.0 5.0 0.00 0.00 0.00 79 1011.8
20260510014956 64 167 0.0 4.0 0.00 0.00 0.00 75 1011.8
20260510012909 65 162 0.0 4.0 0.00 0.00 0.00 74 1011.8
20260510011853 65 169 0.0 4.0 0.00 0.00 0.00 73 1011.8
20260510010847 66 183 0.0 3.0 0.00 0.00 0.00 71 1011.8
20260510004737 68 147 0.0 2.0 0.00 0.00 0.00 69 1011.8
20260510003711 68 184 0.0 4.0 0.00 0.00 0.00 67 1011.8
20260510002659 68 244 0.0 4.0 0.00 0.00 0.00 67 1011.9
20260510001700 69 132 0.0 5.0 0.00 0.00 0.00 67 1011.8
20260510000634 70 276 1.0 5.0 0.00 0.00 0.00 65 1011.8
20260509235625 69 166 0.0 4.0 0.00 0.00 0.00 64 1011.9
20260509234612 69 163 1.0 5.0 0.00 0.00 0.00 64 1012.0
20260509233635 70 344 1.0 6.0 0.00 0.00 0.00 63 1012.0
20260509232651 70 184 1.0 6.0 0.00 0.00 0.00 63 1012.0
20260509231712 71 182 1.0 6.0 0.00 0.00 0.00 63 1012.2
20260509225538 72 142 0.0 7.0 0.00 0.00 0.00 61 1012.1
20260509224522 71 195 1.0 7.0 0.00 0.00 0.00 61 1012.2
20260509222332 72 192 1.0 4.0 0.00 0.00 0.00 60 1012.5
20260509221325 73 175 1.0 7.0 0.00 0.00 0.00 63 1012.6
20260509220257 72 179 1.0 7.0 0.00 0.00 0.00 62 1012.7
20260509214048 74 167 2.0 8.0 0.00 0.00 0.00 60 1012.8
20260509213100 74 143 2.0 7.0 0.00 0.00 0.00 60 1012.8
20260509212101 74 167 1.0 6.0 0.00 0.00 0.00 62 1013.0
20260509211043 73 148 2.0 6.0 0.00 0.00 0.00 61 1013.1
20260509210048 73 175 2.0 7.0 0.00 0.00 0.00 61 1013.1
20260509205033 73 159 2.0 7.0 0.00 0.00 0.00 63 1013.1
20260509204003 74 179 2.0 6.0 0.00 0.00 0.00 60 1013.1
20260509202932 75 169 1.0 5.0 0.00 0.00 0.00 61 1013.1
20260509201926 74 142 1.0 6.0 0.00 0.00 0.00 64 1013.2
20260509200923 73 163 1.0 6.0 0.00 0.00 0.00 62 1013.3
20260509195853 74 175 1.0 4.0 0.00 0.00 0.00 62 1013.4
20260509193740 73 180 1.0 6.0 0.00 0.00 0.00 60 1013.4
20260509192752 74 190 1.0 6.0 0.00 0.00 0.00 63 1013.5
20260509191734 73 153 1.0 6.0 0.00 0.00 0.00 65 1013.6
20260509190724 74 186 1.0 6.0 0.00 0.00 0.00 65 1013.6
20260509184550 72 150 0.0 3.0 0.00 0.00 0.00 67 1013.8
20260509183559 71 116 0.0 6.0 0.00 0.00 0.00 65 1013.8
20260509182615 71 178 1.0 6.0 0.00 0.00 0.00 69 1013.9
20260509180408 70 151 0.0 4.0 0.00 0.00 0.00 67 1013.9
20260509175428 69 108 0.0 4.0 0.00 0.00 0.00 69 1013.9
20260509174417 68 138 1.0 4.0 0.00 0.00 0.00 69 1014.0
20260509173356 68 80 0.0 3.0 0.00 0.00 0.00 71 1013.9
20260509171244 66 104 0.0 3.0 0.00 0.00 0.00 75 1013.9
20260509170254 64 105 0.0 3.0 0.00 0.00 0.00 74 1014.0
20260509165245 64 99 0.0 4.0 0.00 0.00 0.00 76 1014.1
20260509164240 62 196 0.0 4.0 0.00 0.00 0.00 76 1014.1
20260509163222 62 157 0.0 3.0 0.00 0.00 0.00 78 1014.2
20260509162236 61 27 0.0 4.0 0.00 0.00 0.00 79 1014.2
20260509161208 60 127 0.0 4.0 0.00 0.00 0.00 80 1014.1
20260509160207 60 148 0.0 3.0 0.00 0.00 0.00 82 1014.2
20260509153953 58 76 0.0 3.0 0.00 0.00 0.00 85 1014.0
20260509152923 57 104 0.0 2.0 0.00 0.00 0.00 86 1013.9
20260509151857 56 153 0.0 2.0 0.00 0.00 0.00 88 1013.9
20260509150903 55 166 0.0 2.0 0.00 0.00 0.00 89 1013.9
20260509145908 55 128 0.0 2.0 0.00 0.00 0.00 89 1013.9
20260509144916 54 235 0.0 4.0 0.00 0.00 0.00 89 1014.0
20260509143930 54 130 0.0 1.0 0.00 0.00 0.00 90 1013.9
20260509142905 53 196 0.0 4.0 0.00 0.00 0.00 90 1013.9
20260509141847 53 191 0.0 2.0 0.00 0.00 0.00 90 1013.9
20260509135720 53 131 0.0 2.0 0.00 0.00 0.00 90 1013.8
20260509134725 53 233 0.0 2.0 0.00 0.00 0.00 90 1013.8
20260509133742 53 189 0.0 2.0 0.00 0.00 0.00 90 1013.7
20260509132804 53 168 0.0 0.0 0.00 0.00 0.00 90 1013.7
20260509130654 53 167 0.0 2.0 0.00 0.00 0.00 89 1013.6
20260509125635 53 191 0.0 0.0 0.00 0.00 0.00 89 1013.5
20260509124658 53 148 0.0 1.0 0.00 0.00 0.00 89 1013.5
20260509123701 53 167 0.0 1.0 0.00 0.00 0.00 89 1013.6
20260509122644 54 163 0.0 0.0 0.00 0.00 0.00 89 1013.6
20260509121624 54 178 0.0 0.0 0.00 0.00 0.00 90 1013.6
20260509120649 54 153 0.0 0.0 0.00 0.00 0.00 90 1013.5
20260509115650 54 165 0.0 1.0 0.00 0.00 0.00 90 1013.6
20260509114711 54 167 0.0 2.0 0.00 0.00 0.00 90 1013.7
20260509112522 54 164 0.0 0.0 0.00 0.00 0.00 90 1013.6
20260509111542 54 166 0.0 2.0 0.00 0.00 0.00 90 1013.6
20260509110534 54 178 0.0 0.0 0.00 0.00 0.00 90 1013.7
20260509105506 54 179 0.0 1.0 0.00 0.00 0.00 90 1013.7
20260509104518 54 186 0.0 0.0 0.00 0.00 0.00 89 1013.7
20260509103443 54 187 0.0 2.0 0.00 0.00 0.00 90 1013.7
20260509102437 54 82 0.0 2.0 0.00 0.00 0.00 90 1013.7
20260509101448 54 182 0.0 2.0 0.00 0.00 0.00 90 1013.8
20260509100456 54 104 0.0 2.0 0.00 0.00 0.00 90 1013.8
20260509095422 54 196 0.0 1.0 0.00 0.00 0.00 90 1013.8
20260509094349 53 171 0.0 4.0 0.00 0.00 0.00 89 1014.0
20260509093414 53 201 0.0 4.0 0.00 0.00 0.00 89 1014.2
20260509092416 53 183 0.0 3.0 0.00 0.00 0.00 89 1014.1
20260509091426 53 171 0.0 0.0 0.00 0.00 0.00 89 1014.0
20260509090423 53 190 0.0 2.0 0.00 0.00 0.00 88 1014.0
20260509085429 53 177 0.0 0.0 0.00 0.00 0.00 89 1014.0
20260509084430 53 161 0.0 0.0 0.00 0.00 0.00 89 1014.1
20260509081216 54 160 0.0 0.0 0.00 0.00 0.00 88 1014.4
20260509080232 54 161 0.0 0.0 0.00 0.00 0.00 88 1014.4
20260509075205 54 180 0.0 0.0 0.00 0.00 0.00 88 1014.5
20260509074131 54 123 0.0 1.0 0.00 0.00 0.00 88 1014.5
20260509073115 54 185 0.0 3.0 0.00 0.00 0.00 88 1014.4
20260509072128 54 193 0.0 2.0 0.00 0.00 0.00 88 1014.5
20260509071133 53 182 0.0 0.0 0.00 0.00 0.00 88 1014.4
20260509070133 53 184 0.0 0.0 0.00 0.00 0.00 88 1014.6
20260509065138 53 144 0.0 1.0 0.00 0.00 0.00 88 1014.6
20260509064109 54 188 0.0 0.0 0.00 0.00 0.00 88 1014.6